Neely Henry Lake Weather Center

Moon Phase Calendar



Neely Henry Lake Water Level
Online Cameras

 


      

Current Conditions in Southside
9/19/2021 8:41:42 PM

74°F
Feels Like 75
Rain
Humidity
97%
Pressure
30.03"
Wind
6.9 mph (E)
Dew Point
73°F
UV Index
0/10 (Low)
Visibility
6 mi

Hourly Forecast

Date & Time Sun, Sep 19
8:00 PM
Sun, Sep 19
9:00 PM
Sun, Sep 19
10:00 PM
Sun, Sep 19
11:00 PM
Mon, Sep 20
12:00 AM
Mon, Sep 20
1:00 AM
Mon, Sep 20
2:00 AM
Mon, Sep 20
3:00 AM
Mon, Sep 20
4:00 AM
Mon, Sep 20
5:00 AM
Mon, Sep 20
6:00 AM
Mon, Sep 20
7:00 AM
Mon, Sep 20
8:00 AM
Mon, Sep 20
9:00 AM
Mon, Sep 20
10:00 AM
Mon, Sep 20
11:00 AM
Mon, Sep 20
12:00 PM
Mon, Sep 20
1:00 PM
Mon, Sep 20
2:00 PM
Mon, Sep 20
3:00 PM
Mon, Sep 20
4:00 PM
Mon, Sep 20
5:00 PM
Mon, Sep 20
6:00 PM
Mon, Sep 20
7:00 PM
Mon, Sep 20
8:00 PM
Mon, Sep 20
9:00 PM
Mon, Sep 20
10:00 PM
Mon, Sep 20
11:00 PM
Tue, Sep 21
12:00 AM
Tue, Sep 21
1:00 AM
Tue, Sep 21
2:00 AM
Tue, Sep 21
3:00 AM
Tue, Sep 21
4:00 AM
Tue, Sep 21
5:00 AM
Tue, Sep 21
6:00 AM
Tue, Sep 21
7:00 AM
Tue, Sep 21
8:00 AM
Tue, Sep 21
9:00 AM
Tue, Sep 21
10:00 AM
Tue, Sep 21
11:00 AM
Tue, Sep 21
12:00 PM
Tue, Sep 21
1:00 PM
Tue, Sep 21
2:00 PM
Tue, Sep 21
3:00 PM
Tue, Sep 21
4:00 PM
Tue, Sep 21
5:00 PM
Tue, Sep 21
6:00 PM
Tue, Sep 21
7:00 PM
Condition
Rain

Rain

Clouds

Rain

Rain

Clouds

Clouds

Clouds

Rain

Rain

Rain

Rain

Clouds

Clouds

Clouds

Rain

Rain

Rain

Rain

Rain

Rain

Rain

Rain

Rain

Rain

Rain

Clouds

Clouds

Clouds

Clouds

Clouds

Clouds

Clouds

Clouds

Clouds

Clouds

Clouds

Clouds

Clouds

Rain

Rain

Rain

Rain

Rain

Rain

Rain

Rain

Rain
Temperature 73°F74°F73°F72°F71°F70°F69°F69°F69°F69°F70°F70°F70°F71°F74°F75°F77°F78°F79°F78°F77°F76°F73°F70°F70°F70°F70°F69°F69°F69°F69°F69°F69°F69°F69°F69°F70°F73°F76°F78°F79°F80°F81°F81°F80°F80°F77°F72°F
Feels Like 74°F75°F74°F73°F72°F71°F70°F70°F70°F71°F71°F71°F71°F73°F75°F77°F78°F80°F79°F79°F78°F77°F75°F72°F71°F71°F71°F70°F70°F70°F70°F70°F70°F70°F70°F70°F72°F74°F77°F80°F79°F84°F85°F85°F84°F80°F79°F73°F
Cloudiness 100%100%100%100%100%100%100%100%100%100%100%100%100%100%99%99%97%91%54%51%53%56%54%57%99%100%100%100%99%100%100%100%100%100%100%99%96%92%90%89%85%79%34%38%37%33%32%27%
Visibility 6 mi6 mi6 mi6 mi6 mi6 mi6 mi6 mi6 mi6 mi6 mi6 mi6 mi6 mi6 mi6 mi5 mi6 mi6 mi4 mi6 mi6 mi6 mi6 mi6 mi6 mi6 mi6 mi6 mi6 mi6 mi6 mi6 mi6 mi6 mi6 mi6 mi6 mi6 mi6 mi6 mi6 mi6 mi6 mi6 mi6 mi6 mi4 mi
Precipitation 64%70%78%78%78%78%24%24%72%89%92%90%39%28%19%53%75%86%92%95%85%85%92%92%62%57%56%52%52%52%0%0%0%0%0%0%0%0%0%25%44%69%88%88%92%95%95%95%
Humidity 98%97%98%98%98%98%98%99%98%98%98%98%97%95%90%86%85%83%82%85%87%88%91%96%96%96%95%95%96%97%97%97%97%98%98%98%95%91%84%77%75%75%73%73%75%79%87%93%
Dew Point 72°F73°F72°F71°F70°F69°F68°F68°F68°F69°F69°F68°F69°F69°F70°F71°F72°F72°F73°F73°F73°F72°F70°F69°F69°F68°F68°F67°F68°F68°F68°F68°F68°F68°F68°F68°F69°F70°F70°F70°F71°F71°F71°F71°F71°F72°F73°F69°F
Pressure 30.03"30.03"30.03"30.03"30.03"30.03"30.03"30"30"30"30.03"30.03"30.06"30.06"30.06"30.06"30.03"30.03"30"29.97"30"30"30"30.03"30.06"30.06"30.06"30.06"30.06"30.03"30.03"30.03"30.03"30.03"30.06"30.06"30.09"30.09"30.09"30.09"30.06"30.06"30.03"30"30"30"30"30"
Wind Speed 5.9 mph5.3 mph5.2 mph5.1 mph4.1 mph4 mph3.9 mph4.1 mph4.3 mph4.6 mph5.4 mph5.8 mph6.2 mph7.1 mph8.2 mph8.6 mph8.9 mph8.7 mph9 mph9.5 mph9 mph8.8 mph9.7 mph8.8 mph7.6 mph6.8 mph6.8 mph5.5 mph4.1 mph3.7 mph3.9 mph4 mph3.6 mph3.4 mph3.2 mph2.8 mph2.7 mph3.5 mph3.4 mph2.8 mph2.6 mph2.7 mph3 mph2.6 mph2.3 mph2.5 mph2.3 mph1.7 mph
Wind
Direction
72°
ENE
77°
ENE
81°
E
87°
E
98°
E
101°
E
103°
ESE
96°
E
102°
ESE
101°
E
97°
E
95°
E
97°
E
100°
E
104°
ESE
113°
ESE
119°
ESE
120°
ESE
114°
ESE
113°
ESE
109°
ESE
103°
ESE
103°
ESE
110°
ESE
110°
ESE
106°
ESE
104°
ESE
98°
E
90°
E
85°
E
83°
E
84°
E
84°
E
88°
E
88°
E
93°
E
105°
ESE
122°
ESE
133°
SE
131°
SE
124°
SE
131°
SE
146°
SE
167°
SSE
195°
SSW
201°
SSW
172°
S
186°
S

Daily Forecast

Date High Low Precip. Humidity
Today
Sep 19

Rain
74 °F
69 °F
100%
99%
Monday
Sep 20

Rain
79 °F
69 °F
95%
85%
Tuesday
Sep 21

Rain
80 °F
69 °F
95%
75%
Wednesday
Sep 22

Rain
69 °F
57 °F
95%
73%
Thursday
Sep 23

Clear
69 °F
52 °F
0%
44%
Friday
Sep 24

Clear
73 °F
47 °F
0%
46%
Saturday
Sep 25

Clear
75 °F
50 °F
0%
42%
Sunday
Sep 26

Clear
78 °F
54 °F
0%
46%
Monday
Sep 27

Clear
79 °F
55 °F
0%
46%
Tuesday
Sep 28

Clouds
82 °F
59 °F
0%
48%
Wednesday
Sep 29

Clouds
84 °F
61 °F
0%
45%
Thursday
Sep 30

Clouds
79 °F
62 °F
0%
65%
Friday
Oct 1

Rain
73 °F
62 °F
100%
79%
Saturday
Oct 2

Rain
74 °F
64 °F
100%
78%
Sunday
Oct 3

Rain
72 °F
64 °F
100%
91%
Monday
Oct 4

Clouds
82 °F
62 °F
0%
58%

Temperature 8-14 Day Outlook



Precipitation 8-14 Day Outlook




Quick Links
Neely Henry Lake News
Neely Henry Lake Photos
Neely Henry Lake Videos




About Us
Contact Us
Site Map
Search Site
Advertise With Us
   
NeelyHenry.USLakes.info
THE NEELY HENRY LAKE WEBSITE

Copyright 2021, Lakes Online
Privacy    |    Legal